Regional Weather Roundup
Issued by NWS

Home | Current Version | Previous Version | Text Only | Print | Product List | Glossary On
Versions: 1 2 3 4 5 6 7 8 9 10 11 12 13 14 15 16 17 18 19 20 21 22 23 24 25 26 27 28 29 30 31 32 33 34 35 36 37 38 39 40 41 42 43 44 45 46 47 48 49 50
933
ASUS46 KLOX 230513
RWRCA

SOUTHERN CALIFORNIA WEATHER ROUNDUP
NATIONAL WEATHER SERVICE OXNARD CALIFORNIA
1000 PM PDT SUN OCT 22 2017

NOTE: "FAIR" INDICATES FEW OR NO CLOUDS BELOW 12,000 FEET WITH NO
SIGNIFICANT WEATHER AND/OR OBSTRUCTIONS TO VISIBILITY.

  -  STATIONS PRECEEDED BY AN ASTERISK (*) ARE NOT NWS OR FAA
     STATIONS AND ARE NOT SUBJECT TO NWS AND FAA QUALITY CONTROL.

CAZ041-042-087-230600-
LA AND ORANGE COUNTY COASTAL AREAS


CITY           SKY/WX    TMP DP  RH WIND       PRES   REMARKS
L.A. DOWNTOWN  CLEAR     72  54  53 CALM      30.06S
L.A. AIRPORT   PTCLDY    71  56  58 E5        30.06S
LONG BEACH     CLEAR     71  53  52 W3        30.06S

CITY           SKY/WX    TMP DP  RH WIND       PRES   REMARKS
AVALON           N/A     66 N/A N/A MISG        N/A
FULLERTON      CLEAR     71  42  35 E3        30.05S
*GETTY CENTER    N/A    N/A N/A N/A VRB18       N/A
HAWTHORNE      CLEAR     69  57  65 CALM      30.06S
*LEO CARRILLO    N/A     85  31  14 NE3         N/A
*LOS ALAMITOS  FAIR      66  50  55 CALM      30.06S
*REDONDO BEACH   N/A     67  52  59 CALM      30.05S
SANTA ANA      CLEAR     72  46  39 CALM      30.06R
STA MONICA APT CLEAR     68  60  75 CALM      30.06S
*UCLA            N/A     81  28  15 N7        30.04S

$$

CAZ547-548-048-230600-
LA COUNTY VALLEYS AND INLAND EMPIRE


CITY           SKY/WX    TMP DP  RH WIND       PRES   REMARKS
BURBANK        CLEAR     72  37  28 CALM      30.09S
VAN NUYS       CLEAR     81  26  13 N9        30.09S

CITY           SKY/WX    TMP DP  RH WIND       PRES   REMARKS
CORONA AIRPORT CLEAR     83  32  16 SE8       30.10R
*CHATSWORTH      N/A     85  35  17 N16       30.05S
CHINO          CLEAR     68  45  43 CALM      30.10S
*CLAREMONT       N/A     72  33  24 NE2         N/A
MARCH AFB      CLEAR     71  28  20 N5        30.14R
ONTARIO        CLEAR     73  35  25 NW8       30.10S
*PASADENA        N/A     75  43  31 CALM        N/A
RIVERSIDE      CLEAR     79  33  19 E3        30.11R
SAN BERNARDINO FAIR      71  30  22 E3        30.14R
*SAN RAFAEL HI   N/A     84  26  12 CALM        N/A
*SAUGUS          N/A     76  27  16 N5          N/A
*WHITEMAN AP   NOT AVBL
*WHITTIER HILL   N/A     81  33  18 CALM        N/A
*WOODLAND HILL   N/A     72  32  23 SE2         N/A

$$

CAZ054-055-230600-
LA AND SAN BERNARDINO COUNTY MOUNTAINS


CITY           SKY/WX    TMP DP  RH WIND       PRES   REMARKS
*ACTON           N/A     72  30  21 N7          N/A
*BIG BEAR AIRP CLEAR     43  21  42 CALM      30.50R
*BIG PINES       N/A     57  27  31 E2          N/A
*CHILAO          N/A     68  28  22 NE21        N/A
SANDBERG       CLEAR     67  25  20 NE14      30.37R
*WARM SPRINGS    N/A     69  25  19 NE23        N/A

$$

CAZ028-029-059-060-099-230600-
ANTELOPE VALLEY AND SURROUNDING AREAS


CITY           SKY/WX    TMP DP  RH WIND       PRES   REMARKS
LANCASTER      CLEAR     55  23  28 W8        30.28R
PALMDALE       CLEAR     60  27  28 CALM      30.28R
*POPPY PARK      N/A     58  25  28 CALM        N/A

CITY           SKY/WX    TMP DP  RH WIND       PRES   REMARKS
29 PALMS       CLEAR     70  22  16 W10       30.30R
BARSTOW/DAGGET CLEAR     63  25  23 SW5       30.25R
BISHOP         CLEAR     47  21  35 NW10      30.41R
CHINA LAKE     CLEAR     59  26  28 S8        30.28R
EDWARDS AFB    CLEAR     60  21  22 N5        30.26R
MOJAVE         CLEAR     63  32  31 N9        30.29R
NEEDLES        CLEAR     79  30  16 NW6       30.15R
VICTORVILLE    CLEAR     57  23  26 CALM      30.30R

$$

CAZ039-040-230600-
VENTURA AND SANTA BARBARA COUNTY COAST


CITY           SKY/WX    TMP DP  RH WIND       PRES   REMARKS
CAMARILLO      CLEAR     64  45  49 CALM      30.07S
NWS OXNARD       N/A     65  44  46 CALM      30.05F
OXNARD AIRPORT CLEAR     60  55  83 NW3       30.07S
*POINT MUGU    CLEAR     65  51  60 N9        30.07S
SBA APT/GOLETA CLEAR     58  53  84 CALM      30.07R
*SANTA BARBARA   N/A     66  46  48 CALM      30.14S

$$

CAZ044-045-230600-
VENTURA COUNTY VALLEYS


CITY           SKY/WX    TMP DP  RH WIND       PRES   REMARKS
*SIMI VALLEY     N/A     82  33  17 N7        30.02S
*WESTLAKE VILL   N/A     68  38  33 CALM      30.08S
*OJAI            N/A     57  40  51 CALM      30.04F
*FILLMORE        N/A     72  37  28 NE3       30.11S

$$

CAZ053-230600-
VENTURA COUNTY MOUNTAINS


CITY           SKY/WX    TMP DP  RH WIND       PRES   REMARKS
*LOCKWOOD VLY    N/A     46  25  42 MISG        N/A
*FRAZIER MTN     N/A     54  21  27 E8        30.07R
*ROSE VALLEY     N/A     46  25  42 MISG        N/A

$$

CAZ034-035-036-230600-
CENTRAL COAST AND SANTA YNEZ VALLEY


CITY           SKY/WX    TMP DP  RH WIND       PRES   REMARKS
SAN LUIS OBISP CLEAR     72  42  34 SW9       30.15R
SANTA MARIA    CLEAR     75  39  27 NE18      30.13R

CITY           SKY/WX    TMP DP  RH WIND       PRES   REMARKS
*CAL POLY SLO    N/A     72  46  40 NE10G38     N/A
*LOMPOC        CLEAR     55  47  74 CALM      30.12R
*PISMO BEACH     N/A     73  45  37 CALM      30.14R
*SANTA YNEZ    FAIR      61  41  48 CALM      30.14R

$$

CAZ037-038-051-230600-
SAN LUIS OBISPO COUNTY INTERIOR AND CUYAMA VALLEY


CITY           SKY/WX    TMP DP  RH WIND       PRES   REMARKS
*CUYAMA          N/A     51  41  67 CALM      30.27S
PASO ROBLES    CLEAR     60  45  57 E7        30.26R

$$

CAZ032-033-061-230600-
SOUTHERN DESERTS


CITY           SKY/WX    TMP DP  RH WIND       PRES   REMARKS
BLYTHE         CLEAR     72  19  13 NW9       30.09S
IMPERIAL       CLEAR     70  32  24 SW6       30.06S
PALM SPRINGS   CLEAR     80  30  16 N3        30.13S
THERMAL        CLEAR     66  49  54 W5        30.06S

$$

ELSEWHERE ACROSS THE WESTERN UNITED STATES AND MEXICO


CITY           SKY/WX    TMP DP  RH WIND       PRES   REMARKS
DEATH VALLEY,    N/A     75  27  17 E2          N/A
DENVER, CO     CLOUDY    60  25  26 NW12      30.15R
GRAND CANYON,  PTCLDY    34  11  38 NE5       30.49S WCI  30
HONOLULU, HI   PTCLDY    79  70  73 S3        29.97R
KAHULUI, MAUI  PTCLDY    81  72  74 CALM      29.97R
LAKE TAHOE, CA CLEAR     39  32  76 CALM      30.55R
LAS VEGAS, NV  CLEAR     68  30  24 SW3       30.25S
MAMMOTH LAKES, FAIR      43  13  30 N6        30.60R
MEXICO CITY, M PTCLDY    59  45  58 N6        30.47R
PHOENIX, AZ    CLEAR     79  30  16 CALM      30.08R
PORTLAND, OR   PTCLDY    50  48  93 CALM      30.47R
RENO, NV       CLEAR     56  33  42 VRB5      30.49R
SALT LAKE CITY MOCLDY    57  33  40 S3        30.37R
SAN DIEGO, CA  CLEAR     74  38  27 CALM      30.07S
SAN FRANCISCO, CLEAR     63  51  65 CALM      30.27R
SAN JOSE, CA   CLEAR     63  55  75 CALM      30.27R
SEATTLE, WA    MOCLDY    52  48  86 S8        30.44R
TIJUANA, MEX   CLEAR     68  39  34 CALM      30.09S

$$

STATION/POSITION TIME  TEMP    WIND        PRES    VSBY  WAVE
                       AIR SEA DIR/SP/G                  HT/PER
                 (UTC) (F)     (DEG/KT/KT) (MB)    (MI)  (FT/S)
POINT ARGUELLO B NOT AVBL
WEST SANTA BARBA 0500   58 56  320/  6/ 10 1018.1
POINT CONCEPTION NOT AVBL
EAST SANTA BARBA 0500   62 63  240/  6/  8 1018.9
SANTA MONICA BAY 0500      68  330/  8/ 10 1017.3



USA.gov is the U.S. government's official web portal to all federal, state and local government web resources and services.